Location: *
(48.8780°N, 19.2358°E)
Time: 01:56:42
(UTC+00:00)

Cosmos 1812 Rocket - Pass Details

Date: 18 October 2019
Orbit: 606 x 632 km, 82.5° (Epoch: 14 November)

Event Time Altitude Azimuth Distance (km) Brightness Sun altitude
Rises 18:14:34 0° 202° (SSW) 2,890 7.1 -24.7°
Reaches altitude 10° 18:16:50 10° 207° (SSW) 1,992 6.3 -25.0°
Maximum altitude 18:21:09 51° 284° (WNW) 792 4.4 -25.7°
Drops below altitude 10° 18:25:31 10° 1° (N) 2,021 6.3 -26.4°
Sets 18:27:50 0° 6° (N) 2,936 7.2 -26.8°
